This demonstration page uses our WeatherBlox Daily Observations layout. Learn more.

39.29038, -76.61219

Hourly Observations for February 6, 2020

Temp ( °F °C ) Dew Point ( °F °C ) Humidity (%) Winds ( mph kmh ) Pressure ( in mb ) Visibility ( mi km ) Precip ( " mm )
12:54 am 00:54 undefined 39 3.9 35 1.7 86 86 undefined N/A 29.88 1012 N/A 0.01 0.254
1:54 am 01:54 undefined 38 3.3 36 2.2 93 93 undefined N/A 29.84 1010 N/A 0.01 0.254
2:54 am 02:54 undefined 38 3.3 36 2.2 93 93 undefined N/A 29.82 1010 N/A 0.01 0.254
3:54 am 03:54 undefined 38 3.3 36 2.2 93 93 undefined N/A 29.76 1008 N/A 0 0
4:54 am 04:54 undefined 38 3.3 36 2.2 93 93 undefined N/A 29.68 1005 N/A 0 0
5:54 am 05:54 undefined 39 3.9 36 2.2 89 89 undefined N/A 29.66 1004 N/A 0.01 0.254
6:54 am 06:54 undefined 39 3.9 37 2.8 93 93 undefined N/A 29.69 1005 N/A 0 0
7:54 am 07:54 undefined 40 4.4 37 2.8 89 89 undefined N/A 29.69 1005 N/A 0 0
8:54 am 08:54 undefined 40 4.4 38 3.3 93 93 undefined N/A 29.66 1005 N/A 0 0
9:54 am 09:54 undefined 40 4.4 38 3.3 93 93 undefined N/A 29.65 1004 N/A 0 0
10:54 am 10:54 undefined 41 5 38 3.3 89 89 undefined N/A 29.62 1003 N/A 0 0
11:54 am 11:54 undefined 41 5 39 3.9 93 93 undefined N/A 29.59 1002 N/A 0.01 0.254
12:54 pm 12:54 undefined 41 5 39 3.9 93 93 undefined N/A 29.56 1001 N/A 0.09 2.286
1:54 pm 13:54 undefined 42 5.6 40 4.4 92 92 undefined N/A 29.52 1000 N/A 0.09 2.286
2:54 pm 14:54 undefined 42 5.6 40 4.4 92 92 undefined N/A 29.49 999 N/A 0.12 3.048
3:54 pm 15:54 undefined 42 5.6 39 3.9 89 89 undefined N/A 29.44 997 N/A 0.07 1.778
4:54 pm 16:54 undefined 42 5.6 40 4.4 92 92 undefined N/A 29.44 997 N/A 0.04 1.016
5:54 pm 17:54 undefined 43 6.1 40 4.4 89 89 undefined N/A 29.44 997 N/A 0 0
6:54 pm 18:54 undefined 43 6.1 41 5 93 93 undefined N/A 29.49 999 N/A 0 0
7:54 pm 19:54 undefined 43 6.1 41 5 93 93 undefined N/A 29.47 998 N/A 0.03 0.762
8:54 pm 20:54 undefined 43 6.1 41 5 93 93 undefined N/A 29.43 997 N/A 0.01 0.254
9:54 pm 21:54 undefined 43 6.1 41 5 93 93 undefined N/A 29.4 996 N/A 0.01 0.254
10:54 pm 22:54 undefined 43 6.1 41 5 93 93 undefined N/A 29.4 996 N/A 0 0
11:54 pm 23:54 undefined 44 6.7 42 5.6 93 93 undefined N/A 29.39 995 N/A 0.01 0.254

Powered by AerisWeather